User: anonymous   Login
Location: Unspecified
(0.0000°N, 0.0000°E)
Time: 02:48:27
(UTC+00:00)
Language:

GALILEO 11 (268) - Orbit

View from above orbital plane
View from above orbital plane
View from above satellite
View from above satellite

Ground track
Ground track

The orbit data is extracted from the following two-line orbital elements,

1 41175U 15079B   18320.99678764  .00000064  00000-0  00000+0 0  9999
2 41175  54.9255 177.4156 0002692 330.7630  29.3150  1.70473352 18159
Epoch (UTC): 16 November 2018 23:55:22
Eccentricity: 0.0002692
inclination: 54.9255°
perigee height: 23214 km
apogee height: 23230 km
right ascension of ascending node: 177.4156°
argument of perigee: 330.7630°
revolutions per day: 1.70473352
mean anomaly at epoch: 29.3150°
orbit number at epoch: 1815

The dashed part of the orbit path shows where the satellite is in the earth's shadow,  

DLR